User: anonymous   Login
Location: Unspecified
(0.0000°N, 0.0000°E)
Time: 01:31:17
(UTC+00:00)
Language:

OPTUS D2 - Orbit

View from above orbital plane
View from above orbital plane
View from above satellite
View from above satellite

Ground track
Ground track

The orbit data is extracted from the following two-line orbital elements,

1 32252U 07044A   16273.54131106 -.00000209  00000-0  00000+0 0  9990
2 32252   0.0178  99.4024 0003662  86.0959 170.1307  1.00271927 32861
Epoch (UTC): 29 September 2016 12:59:29
Eccentricity: 0.0003662
inclination: 0.0178°
perigee height: 35771 km
apogee height: 35801 km
right ascension of ascending node: 99.4024°
argument of perigee: 86.0959°
revolutions per day: 1.00271927
mean anomaly at epoch: 170.1307°
orbit number at epoch: 3286

The dashed part of the orbit path shows where the satellite is in the earth's shadow,  

DLR